| time (UTC) | temp F | wind direction | speed MPH | gust MPH | rain 1hr in | rain 24hr in | rain mn in | humidity % | barometer mb |
| 20260505215011 | 48 | 360 | 19.0 | 27.0 | 0.00 | 0.00 | 0.00 | 26 | 929.1 |
| 20260505214532 | 48 | 360 | 17.0 | 38.0 | 0.00 | 0.00 | 0.00 | 28 | 929.4 |
| 20260505214014 | 47 | 360 | 23.0 | 38.0 | 0.00 | 0.00 | 0.00 | 30 | 929.1 |
| 20260505213513 | 47 | 360 | 25.0 | 32.0 | 0.00 | 0.00 | 0.00 | 35 | 929.4 |
| 20260505213030 | 48 | 360 | 15.0 | 32.0 | 0.00 | 0.00 | 0.00 | 26 | 929.5 |
| 20260505212512 | 48 | 360 | 19.0 | 27.0 | 0.00 | 0.00 | 0.00 | 31 | 929.4 |
| 20260505212018 | 47 | 360 | 20.0 | 23.0 | 0.00 | 0.00 | 0.00 | 34 | 929.5 |
| 20260505211546 | 46 | 360 | 18.0 | 26.0 | 0.00 | 0.00 | 0.00 | 41 | 929.6 |
| 20260505211013 | 47 | 360 | 20.0 | 30.0 | 0.00 | 0.00 | 0.00 | 40 | 929.8 |
| 20260505210511 | 46 | 360 | 22.0 | 30.0 | 0.00 | 0.00 | 0.00 | 43 | 929.9 |
| 20260505210032 | 46 | 360 | 24.0 | 29.0 | 0.00 | 0.00 | 0.00 | 42 | 929.7 |
| 20260505205517 | 46 | 360 | 21.0 | 28.0 | 0.00 | 0.00 | 0.00 | 40 | 929.8 |
| 20260505205014 | 46 | 360 | 21.0 | 29.0 | 0.00 | 0.00 | 0.00 | 39 | 929.9 |
| 20260505204544 | 46 | 360 | 18.0 | 29.0 | 0.00 | 0.00 | 0.00 | 38 | 929.9 |
| 20260505204012 | 46 | 360 | 21.0 | 32.0 | 0.00 | 0.00 | 0.00 | 37 | 929.4 |
| 20260505203512 | 47 | 360 | 25.0 | 32.0 | 0.00 | 0.00 | 0.00 | 37 | 929.5 |
| 20260505203032 | 48 | 360 | 23.0 | 30.0 | 0.00 | 0.00 | 0.00 | 35 | 929.4 |
| 20260505202513 | 47 | 360 | 22.0 | 29.0 | 0.00 | 0.00 | 0.00 | 33 | 929.4 |
| 20260505202012 | 48 | 360 | 21.0 | 25.0 | 0.00 | 0.00 | 0.00 | 24 | 929.4 |
| 20260505201538 | 47 | 360 | 16.0 | 28.0 | 0.00 | 0.00 | 0.00 | 25 | 929.5 |
| 20260505201013 | 48 | 360 | 24.0 | 31.0 | 0.00 | 0.00 | 0.00 | 24 | 929.5 |
| 20260505200511 | 47 | 360 | 16.0 | 31.0 | 0.00 | 0.00 | 0.00 | 27 | 929.5 |
| 20260505200039 | 47 | 360 | 16.0 | 23.0 | 0.00 | 0.00 | 0.00 | 27 | 929.7 |
| 20260505195513 | 47 | 360 | 18.0 | 27.0 | 0.00 | 0.00 | 0.00 | 26 | 929.4 |
| 20260505195010 | 47 | 360 | 18.0 | 28.0 | 0.00 | 0.00 | 0.00 | 27 | 929.8 |
| 20260505194531 | 47 | 360 | 20.0 | 28.0 | 0.00 | 0.00 | 0.00 | 27 | 929.6 |
| 20260505194021 | 47 | 360 | 12.0 | 23.0 | 0.00 | 0.00 | 0.00 | 28 | 929.9 |
| 20260505193514 | 46 | 360 | 8.0 | 21.0 | 0.00 | 0.00 | 0.00 | 34 | 929.9 |
| 20260505193037 | 46 | 360 | 12.0 | 23.0 | 0.00 | 0.00 | 0.00 | 37 | 929.9 |
| 20260505192516 | 46 | 360 | 15.0 | 23.0 | 0.00 | 0.00 | 0.00 | 38 | 929.9 |
| 20260505192013 | 44 | 360 | 20.0 | 26.0 | 0.00 | 0.00 | 0.00 | 41 | 929.8 |
| 20260505191536 | 45 | 360 | 16.0 | 27.0 | 0.00 | 0.00 | 0.00 | 38 | 929.9 |
| 20260505191012 | 44 | 360 | 16.0 | 24.0 | 0.00 | 0.00 | 0.00 | 41 | 929.9 |
| 20260505190511 | 44 | 360 | 19.0 | 27.0 | 0.00 | 0.00 | 0.00 | 41 | 929.8 |
| 20260505190038 | 43 | 360 | 19.0 | 33.0 | 0.00 | 0.00 | 0.00 | 42 | 929.8 |
| 20260505185513 | 44 | 360 | 24.0 | 33.0 | 0.00 | 0.00 | 0.00 | 42 | 929.2 |
| 20260505185011 | 43 | 360 | 19.0 | 23.0 | 0.00 | 0.00 | 0.00 | 45 | 929.8 |
| 20260505184540 | 42 | 360 | 18.0 | 23.0 | 0.00 | 0.00 | 0.00 | 44 | 929.8 |
| 20260505184016 | 42 | 360 | 18.0 | 23.0 | 0.00 | 0.00 | 0.00 | 45 | 929.6 |
| 20260505183518 | 42 | 360 | 14.0 | 23.0 | 0.00 | 0.00 | 0.00 | 51 | 929.9 |
| 20260505183031 | 42 | 360 | 18.0 | 24.0 | 0.00 | 0.00 | 0.00 | 52 | 929.8 |
| 20260505182515 | 42 | 360 | 16.0 | 29.0 | 0.00 | 0.00 | 0.00 | 50 | 930.0 |
| 20260505182013 | 42 | 360 | 19.0 | 29.0 | 0.00 | 0.00 | 0.00 | 51 | 929.9 |
| 20260505181544 | 42 | 360 | 19.0 | 25.0 | 0.00 | 0.00 | 0.00 | 57 | 930.1 |
| 20260505181015 | 41 | 360 | 15.0 | 23.0 | 0.00 | 0.00 | 0.00 | 57 | 930.0 |
| 20260505180512 | 42 | 360 | 16.0 | 24.0 | 0.00 | 0.00 | 0.00 | 55 | 930.1 |
| 20260505180033 | 42 | 360 | 18.0 | 27.0 | 0.00 | 0.00 | 0.00 | 57 | 930.1 |
| 20260505175513 | 42 | 360 | 19.0 | 27.0 | 0.00 | 0.00 | 0.00 | 57 | 930.1 |
| 20260505175013 | 42 | 360 | 18.0 | 26.0 | 0.00 | 0.00 | 0.00 | 58 | 930.2 |
| 20260505174538 | 41 | 360 | 19.0 | 24.0 | 0.00 | 0.00 | 0.00 | 60 | 930.1 |
| 20260505174013 | 40 | 360 | 19.0 | 24.0 | 0.00 | 0.00 | 0.00 | 62 | 930.2 |
| 20260505173513 | 40 | 360 | 19.0 | 24.0 | 0.00 | 0.00 | 0.00 | 62 | 930.3 |
| 20260505173036 | 40 | 360 | 20.0 | 25.0 | 0.00 | 0.00 | 0.00 | 62 | 930.4 |
| 20260505172515 | 39 | 360 | 20.0 | 25.0 | 0.00 | 0.00 | 0.00 | 62 | 930.4 |
| 20260505172014 | 39 | 360 | 15.0 | 22.0 | 0.00 | 0.00 | 0.00 | 64 | 930.3 |
| 20260505171538 | 39 | 360 | 17.0 | 23.0 | 0.00 | 0.00 | 0.00 | 64 | 930.3 |
| 20260505171014 | 39 | 360 | 16.0 | 23.0 | 0.00 | 0.00 | 0.00 | 66 | 930.4 |
| 20260505170512 | 38 | 360 | 16.0 | 21.0 | 0.00 | 0.00 | 0.00 | 68 | 930.4 |
| 20260505170035 | 37 | 360 | 16.0 | 21.0 | 0.00 | 0.00 | 0.00 | 67 | 930.4 |
| 20260505165514 | 36 | 360 | 17.0 | 21.0 | 0.00 | 0.00 | 0.00 | 67 | 930.5 |
| 20260505165016 | 37 | 360 | 17.0 | 20.0 | 0.00 | 0.00 | 0.00 | 68 | 930.6 |
| 20260505164535 | 36 | 360 | 13.0 | 17.0 | 0.00 | 0.00 | 0.00 | 67 | 930.7 |
| 20260505164014 | 36 | 360 | 13.0 | 18.0 | 0.00 | 0.00 | 0.00 | 67 | 930.7 |
| 20260505163515 | 36 | 360 | 13.0 | 19.0 | 0.00 | 0.00 | 0.00 | 67 | 930.5 |
| 20260505163036 | 35 | 360 | 13.0 | 19.0 | 0.00 | 0.00 | 0.00 | 68 | 930.4 |
| 20260505162512 | 35 | 360 | 14.0 | 19.0 | 0.00 | 0.00 | 0.00 | 68 | 930.7 |
| 20260505162012 | 35 | 360 | 15.0 | 19.0 | 0.00 | 0.00 | 0.00 | 67 | 930.6 |
| 20260505161536 | 35 | 360 | 15.0 | 22.0 | 0.00 | 0.00 | 0.00 | 66 | 930.7 |
| 20260505161013 | 36 | 360 | 19.0 | 23.0 | 0.00 | 0.00 | 0.00 | 65 | 930.4 |
| 20260505160518 | 37 | 360 | 19.0 | 23.0 | 0.00 | 0.00 | 0.00 | 64 | 930.0 |
| 20260505153042 | 37 | 360 | 11.0 | 18.0 | 0.00 | 0.00 | 0.00 | 63 | 930.4 |
| 20260505152513 | 36 | 360 | 10.0 | 17.0 | 0.00 | 0.00 | 0.00 | 63 | 930.4 |
| 20260505152015 | 36 | 360 | 12.0 | 21.0 | 0.00 | 0.00 | 0.00 | 63 | 930.4 |
| 20260505151536 | 37 | 360 | 16.0 | 21.0 | 0.00 | 0.00 | 0.00 | 62 | 930.3 |
| 20260505151013 | 37 | 360 | 16.0 | 20.0 | 0.00 | 0.00 | 0.00 | 62 | 930.0 |
| 20260505150519 | 37 | 360 | 13.0 | 16.0 | 0.00 | 0.00 | 0.00 | 62 | 930.2 |
| 20260505140516 | 37 | 360 | 12.0 | 16.0 | 0.00 | 0.00 | 0.00 | 63 | 930.2 |
| 20260505125014 | 36 | 360 | 11.0 | 14.0 | 0.00 | 0.00 | 0.00 | 65 | 929.6 |
| 20260505124538 | 36 | 360 | 6.0 | 11.0 | 0.00 | 0.00 | 0.00 | 66 | 929.8 |
| 20260505124016 | 36 | 360 | 6.0 | 9.0 | 0.00 | 0.00 | 0.00 | 66 | 929.8 |
| 20260505123515 | 36 | 360 | 5.0 | 11.0 | 0.00 | 0.00 | 0.00 | 66 | 929.9 |
| 20260505123047 | 36 | 360 | 8.0 | 12.0 | 0.00 | 0.00 | 0.00 | 66 | 929.8 |
| 20260505122515 | 36 | 360 | 9.0 | 12.0 | 0.00 | 0.00 | 0.00 | 66 | 929.6 |
| 20260505121535 | 36 | 360 | 9.0 | 12.0 | 0.00 | 0.00 | 0.00 | 66 | 929.9 |
| 20260505121011 | 35 | 360 | 10.0 | 13.0 | 0.00 | 0.00 | 0.00 | 66 | 929.9 |
| 20260505120510 | 35 | 360 | 11.0 | 13.0 | 0.00 | 0.00 | 0.00 | 66 | 929.7 |
| 20260505120042 | 35 | 360 | 10.0 | 13.0 | 0.00 | 0.00 | 0.00 | 65 | 929.8 |
| 20260505115512 | 35 | 360 | 11.0 | 14.0 | 0.00 | 0.00 | 0.00 | 65 | 929.6 |
| 20260505115012 | 35 | 360 | 11.0 | 14.0 | 0.00 | 0.00 | 0.00 | 65 | 929.6 |
| 20260505114535 | 36 | 360 | 9.0 | 15.0 | 0.00 | 0.00 | 0.00 | 64 | 929.5 |
| 20260505114014 | 36 | 360 | 11.0 | 16.0 | 0.00 | 0.00 | 0.00 | 64 | 929.5 |
| 20260505113511 | 36 | 360 | 11.0 | 14.0 | 0.00 | 0.00 | 0.00 | 63 | 929.7 |
| 20260505113035 | 36 | 360 | 9.0 | 15.0 | 0.00 | 0.00 | 0.00 | 63 | 929.8 |
| 20260505112517 | 36 | 360 | 12.0 | 16.0 | 0.00 | 0.00 | 0.00 | 62 | 929.4 |
| 20260505112011 | 36 | 360 | 11.0 | 17.0 | 0.00 | 0.00 | 0.00 | 61 | 929.2 |
| 20260505111538 | 36 | 360 | 13.0 | 18.0 | 0.00 | 0.00 | 0.00 | 60 | 929.0 |
| 20260505111013 | 37 | 360 | 13.0 | 18.0 | 0.00 | 0.00 | 0.00 | 58 | 929.4 |
| 20260505110514 | 37 | 360 | 14.0 | 17.0 | 0.00 | 0.00 | 0.00 | 57 | 929.2 |
| 20260505102014 | 35 | 360 | 3.0 | 4.0 | 0.00 | 0.00 | 0.00 | 45 | 929.3 |
| 20260505101536 | 35 | 360 | 1.0 | 3.0 | 0.00 | 0.00 | 0.00 | 44 | 929.4 |
| 20260505101014 | 35 | 360 | 2.0 | 3.0 | 0.00 | 0.00 | 0.00 | 44 | 929.1 |
| 20260505100515 | 35 | 360 | 0.0 | 2.0 | 0.00 | 0.00 | 0.00 | 44 | 929.2 |
| 20260505100037 | 35 | 360 | 1.0 | 2.0 | 0.00 | 0.00 | 0.00 | 44 | 929.0 |
| 20260505095517 | 35 | 360 | 2.0 | 3.0 | 0.00 | 0.00 | 0.00 | 44 | 928.8 |
| 20260505095017 | 35 | 360 | 2.0 | 4.0 | 0.00 | 0.00 | 0.00 | 44 | 929.1 |
| 20260505094533 | 35 | 360 | 2.0 | 4.0 | 0.00 | 0.00 | 0.00 | 44 | 928.9 |
| 20260505094013 | 35 | 360 | 0.0 | 3.0 | 0.00 | 0.00 | 0.00 | 44 | 928.9 |
| 20260505093516 | 35 | 360 | 1.0 | 3.0 | 0.00 | 0.00 | 0.00 | 44 | 929.1 |
| 20260505093042 | 35 | 360 | 1.0 | 4.0 | 0.00 | 0.00 | 0.00 | 44 | 928.8 |
| 20260505092512 | 35 | 360 | 2.0 | 4.0 | 0.00 | 0.00 | 0.00 | 45 | 928.9 |
| 20260505092012 | 35 | 360 | 3.0 | 4.0 | 0.00 | 0.00 | 0.00 | 45 | 928.8 |
| 20260505091552 | 35 | 360 | 3.0 | 5.0 | 0.00 | 0.00 | 0.00 | 45 | 928.8 |
| 20260505091015 | 35 | 360 | 3.0 | 8.0 | 0.00 | 0.00 | 0.00 | 44 | 928.8 |
| 20260505090513 | 34 | 360 | 5.0 | 8.0 | 0.00 | 0.00 | 0.00 | 45 | 928.9 |
| 20260505090038 | 34 | 360 | 3.0 | 6.0 | 0.00 | 0.00 | 0.00 | 44 | 929.0 |
| 20260505085515 | 35 | 360 | 5.0 | 6.0 | 0.00 | 0.00 | 0.00 | 43 | 928.8 |
| 20260505085016 | 35 | 360 | 2.0 | 4.0 | 0.00 | 0.00 | 0.00 | 41 | 928.8 |
| 20260505084538 | 37 | 360 | 1.0 | 4.0 | 0.00 | 0.00 | 0.00 | 40 | 928.9 |
| 20260505084011 | 37 | 360 | 3.0 | 4.0 | 0.00 | 0.00 | 0.00 | 43 | 929.0 |
| 20260505083517 | 36 | 360 | 3.0 | 5.0 | 0.00 | 0.00 | 0.00 | 44 | 928.9 |
| 20260505083055 | 35 | 360 | 3.0 | 5.0 | 0.00 | 0.00 | 0.00 | 44 | 928.9 |
| 20260505082517 | 35 | 360 | 3.0 | 5.0 | 0.00 | 0.00 | 0.00 | 42 | 929.0 |
| 20260505082015 | 36 | 360 | 4.0 | 5.0 | 0.00 | 0.00 | 0.00 | 42 | 929.0 |
| 20260505081539 | 36 | 360 | 3.0 | 5.0 | 0.00 | 0.00 | 0.00 | 42 | 928.9 |
| 20260505081019 | 36 | 360 | 0.0 | 0.0 | 0.00 | 0.00 | 0.00 | 44 | 928.9 |
| 20260505080519 | 35 | 360 | 0.0 | 0.0 | 0.00 | 0.00 | 0.00 | 44 | 929.0 |
| 20260505080038 | 35 | 360 | 0.0 | 0.0 | 0.00 | 0.00 | 0.00 | 44 | 928.7 |
| 20260505075515 | 34 | 360 | 0.0 | 0.0 | 0.00 | 0.00 | 0.00 | 44 | 928.7 |
| 20260505075014 | 34 | 360 | 0.0 | 2.0 | 0.00 | 0.00 | 0.00 | 43 | 929.0 |
| 20260505074540 | 35 | 360 | 0.0 | 3.0 | 0.00 | 0.00 | 0.00 | 43 | 928.8 |
| 20260505074016 | 34 | 360 | 2.0 | 3.0 | 0.00 | 0.00 | 0.00 | 44 | 928.7 |
| 20260505073515 | 34 | 360 | 2.0 | 3.0 | 0.00 | 0.00 | 0.00 | 43 | 928.8 |
| 20260505073037 | 33 | 360 | 2.0 | 3.0 | 0.00 | 0.00 | 0.00 | 44 | 928.7 |
| 20260505072516 | 33 | 360 | 2.0 | 4.0 | 0.00 | 0.00 | 0.00 | 44 | 928.8 |
| 20260505072016 | 33 | 360 | 2.0 | 5.0 | 0.00 | 0.00 | 0.00 | 41 | 928.6 |
| 20260505071535 | 33 | 360 | 4.0 | 5.0 | 0.00 | 0.00 | 0.00 | 42 | 928.8 |
| 20260505071016 | 33 | 360 | 2.0 | 3.0 | 0.00 | 0.00 | 0.00 | 42 | 928.8 |
| 20260505070517 | 33 | 360 | 1.0 | 2.0 | 0.00 | 0.00 | 0.00 | 42 | 928.6 |
| 20260505070039 | 33 | 360 | 1.0 | 3.0 | 0.00 | 0.00 | 0.00 | 43 | 928.8 |
| 20260505065518 | 33 | 360 | 0.0 | 0.0 | 0.00 | 0.00 | 0.00 | 43 | 928.7 |
| 20260505065014 | 32 | 360 | 0.0 | 2.0 | 0.00 | 0.00 | 0.00 | 41 | 928.7 |
| 20260505064603 | 32 | 360 | 1.0 | 4.0 | 0.00 | 0.00 | 0.00 | 42 | 928.7 |
| 20260505064014 | 33 | 360 | 1.0 | 4.0 | 0.00 | 0.00 | 0.00 | 40 | 928.6 |
| 20260505063518 | 33 | 360 | 1.0 | 2.0 | 0.00 | 0.00 | 0.00 | 42 | 928.6 |
| 20260505063038 | 33 | 360 | 0.0 | 2.0 | 0.00 | 0.00 | 0.00 | 41 | 928.7 |
| 20260505062513 | 34 | 360 | 0.0 | 2.0 | 0.00 | 0.00 | 0.00 | 41 | 928.5 |
| 20260505062018 | 34 | 360 | 1.0 | 2.0 | 0.00 | 0.00 | 0.00 | 38 | 928.7 |
| 20260505061539 | 35 | 360 | 0.0 | 3.0 | 0.00 | 0.00 | 0.00 | 39 | 928.7 |
| 20260505061018 | 35 | 360 | 1.0 | 3.0 | 0.00 | 0.00 | 0.00 | 39 | 928.4 |
| 20260505060517 | 35 | 360 | 2.0 | 4.0 | 0.00 | 0.00 | 0.00 | 40 | 928.6 |
| 20260505060038 | 35 | 360 | 2.0 | 6.0 | 0.00 | 0.00 | 0.00 | 43 | 928.7 |
| 20260505055517 | 34 | 360 | 4.0 | 6.0 | 0.00 | 0.00 | 0.00 | 40 | 928.7 |
| 20260505055015 | 35 | 360 | 5.0 | 6.0 | 0.00 | 0.00 | 0.00 | 37 | 928.5 |
| 20260505054546 | 36 | 360 | 5.0 | 6.0 | 0.00 | 0.00 | 0.00 | 37 | 928.3 |
| 20260505054014 | 37 | 360 | 3.0 | 4.0 | 0.00 | 0.00 | 0.00 | 38 | 928.3 |
| 20260505053518 | 37 | 360 | 2.0 | 4.0 | 0.00 | 0.00 | 0.00 | 36 | 928.0 |
| 20260505053043 | 38 | 360 | 0.0 | 2.0 | 0.00 | 0.00 | 0.00 | 37 | 928.1 |
| 20260505052515 | 38 | 360 | 0.0 | 1.0 | 0.00 | 0.00 | 0.00 | 37 | 928.0 |
| 20260505052018 | 38 | 360 | 0.0 | 2.0 | 0.00 | 0.00 | 0.00 | 37 | 927.9 |
| 20260505051538 | 38 | 360 | 0.0 | 2.0 | 0.00 | 0.00 | 0.00 | 37 | 928.0 |
| 20260505051017 | 38 | 360 | 1.0 | 2.0 | 0.00 | 0.00 | 0.00 | 37 | 928.1 |
| 20260505050517 | 38 | 360 | 0.0 | 3.0 | 0.00 | 0.00 | 0.00 | 37 | 928.2 |
| 20260505041542 | 39 | 360 | 4.0 | 6.0 | 0.00 | 0.00 | 0.00 | 31 | 928.0 |
| 20260505041016 | 40 | 360 | 4.0 | 6.0 | 0.00 | 0.00 | 0.00 | 29 | 927.9 |
| 20260505040516 | 41 | 360 | 4.0 | 6.0 | 0.00 | 0.00 | 0.00 | 29 | 927.6 |
| 20260505040059 | 41 | 360 | 4.0 | 8.0 | 0.00 | 0.00 | 0.00 | 28 | 927.7 |
| 20260505035516 | 42 | 360 | 5.0 | 9.0 | 0.00 | 0.00 | 0.00 | 28 | 927.5 |
| 20260505035016 | 42 | 360 | 6.0 | 9.0 | 0.00 | 0.00 | 0.00 | 28 | 927.3 |
| 20260505034603 | 42 | 360 | 7.0 | 10.0 | 0.00 | 0.00 | 0.00 | 27 | 927.4 |
| 20260505034014 | 43 | 360 | 7.0 | 12.0 | 0.00 | 0.00 | 0.00 | 26 | 927.4 |
| 20260505033515 | 44 | 360 | 9.0 | 15.0 | 0.00 | 0.00 | 0.00 | 26 | 927.3 |
| 20260505033034 | 44 | 360 | 12.0 | 17.0 | 0.00 | 0.00 | 0.00 | 25 | 927.3 |
| 20260505032519 | 44 | 360 | 12.0 | 17.0 | 0.00 | 0.00 | 0.00 | 25 | 927.1 |
| 20260505032017 | 45 | 360 | 8.0 | 13.0 | 0.00 | 0.00 | 0.00 | 23 | 927.1 |
| 20260505031545 | 46 | 360 | 5.0 | 10.0 | 0.00 | 0.00 | 0.00 | 21 | 926.9 |
| 20260505031019 | 46 | 360 | 7.0 | 12.0 | 0.00 | 0.00 | 0.00 | 21 | 927.2 |
| 20260505030520 | 47 | 360 | 8.0 | 12.0 | 0.00 | 0.00 | 0.00 | 20 | 927.1 |
| 20260505030046 | 47 | 360 | 10.0 | 15.0 | 0.00 | 0.00 | 0.00 | 20 | 926.9 |
| 20260505025516 | 48 | 360 | 11.0 | 15.0 | 0.00 | 0.00 | 0.00 | 19 | 927.0 |
| 20260505025019 | 48 | 360 | 11.0 | 16.0 | 0.00 | 0.00 | 0.00 | 18 | 926.6 |
| 20260505024545 | 48 | 360 | 12.0 | 16.0 | 0.00 | 0.00 | 0.00 | 18 | 926.7 |
| 20260505024015 | 48 | 360 | 11.0 | 18.0 | 0.00 | 0.00 | 0.00 | 17 | 926.7 |
| 20260505023515 | 49 | 360 | 15.0 | 18.0 | 0.00 | 0.00 | 0.00 | 16 | 926.6 |
| 20260505023048 | 49 | 360 | 12.0 | 19.0 | 0.00 | 0.00 | 0.00 | 15 | 926.6 |
| 20260505022518 | 49 | 360 | 13.0 | 19.0 | 0.00 | 0.00 | 0.00 | 14 | 926.7 |
| 20260505022017 | 50 | 360 | 14.0 | 20.0 | 0.00 | 0.00 | 0.00 | 12 | 926.6 |
| 20260505021542 | 50 | 360 | 16.0 | 21.0 | 0.00 | 0.00 | 0.00 | 11 | 926.5 |
| 20260505021021 | 50 | 360 | 15.0 | 21.0 | 0.00 | 0.00 | 0.00 | 11 | 926.2 |
| 20260505020519 | 51 | 360 | 15.0 | 25.0 | 0.00 | 0.00 | 0.00 | 11 | 926.3 |
| 20260505020049 | 51 | 360 | 20.0 | 25.0 | 0.00 | 0.00 | 0.00 | 11 | 926.2 |
| 20260505015518 | 51 | 360 | 16.0 | 22.0 | 0.00 | 0.00 | 0.00 | 11 | 926.3 |
| 20260505015017 | 52 | 360 | 17.0 | 22.0 | 0.00 | 0.00 | 0.00 | 10 | 926.2 |
| 20260505014544 | 52 | 360 | 17.0 | 27.0 | 0.00 | 0.00 | 0.00 | 10 | 926.1 |
| 20260505014015 | 52 | 360 | 21.0 | 27.0 | 0.00 | 0.00 | 0.00 | 10 | 926.1 |
| 20260505013515 | 53 | 360 | 20.0 | 28.0 | 0.00 | 0.00 | 0.00 | 10 | 925.8 |
| 20260505013041 | 53 | 360 | 22.0 | 28.0 | 0.00 | 0.00 | 0.00 | 10 | 926.1 |
| 20260505012519 | 53 | 360 | 19.0 | 27.0 | 0.00 | 0.00 | 0.00 | 11 | 926.2 |
| 20260505012018 | 53 | 360 | 22.0 | 27.0 | 0.00 | 0.00 | 0.00 | 11 | 926.1 |
| 20260505011540 | 53 | 360 | 24.0 | 31.0 | 0.00 | 0.00 | 0.00 | 11 | 925.7 |
| 20260505011017 | 53 | 360 | 20.0 | 28.0 | 0.00 | 0.00 | 0.00 | 12 | 925.8 |
| 20260505010518 | 53 | 360 | 21.0 | 28.0 | 0.00 | 0.00 | 0.00 | 12 | 926.0 |
| 20260505010106 | 53 | 360 | 16.0 | 28.0 | 0.00 | 0.00 | 0.00 | 11 | 926.0 |
| 20260505005518 | 54 | 360 | 23.0 | 28.0 | 0.00 | 0.00 | 0.00 | 11 | 925.9 |
| 20260505005015 | 54 | 360 | 23.0 | 28.0 | 0.00 | 0.00 | 0.00 | 11 | 925.9 |
| 20260505004556 | 55 | 360 | 21.0 | 36.0 | 0.00 | 0.00 | 0.00 | 11 | 925.8 |
| 20260505004018 | 55 | 360 | 20.0 | 36.0 | 0.00 | 0.00 | 0.00 | 11 | 925.9 |
| 20260505003517 | 55 | 360 | 20.0 | 29.0 | 0.00 | 0.00 | 0.00 | 11 | 925.9 |
| 20260505003045 | 55 | 360 | 22.0 | 31.0 | 0.00 | 0.00 | 0.00 | 11 | 925.9 |
| 20260505002517 | 55 | 360 | 24.0 | 31.0 | 0.00 | 0.00 | 0.00 | 11 | 925.4 |
| 20260505002017 | 55 | 360 | 22.0 | 32.0 | 0.00 | 0.00 | 0.00 | 12 | 925.7 |
| 20260505001545 | 55 | 360 | 23.0 | 34.0 | 0.00 | 0.00 | 0.00 | 11 | 925.6 |
| 20260505001015 | 55 | 360 | 29.0 | 34.0 | 0.00 | 0.00 | 0.00 | 11 | 925.6 |
| 20260505000521 | 55 | 360 | 23.0 | 27.0 | 0.00 | 0.00 | 0.00 | 12 | 925.8 |
| 20260505000036 | 55 | 360 | 19.0 | 34.0 | 0.00 | 0.00 | 0.00 | 11 | 925.9 |
| 20260504235520 | 55 | 360 | 27.0 | 36.0 | 0.00 | 0.00 | 0.00 | 11 | 925.8 |
| 20260504235020 | 55 | 360 | 22.0 | 36.0 | 0.00 | 0.00 | 0.00 | 12 | 925.9 |
| 20260504234541 | 55 | 360 | 22.0 | 36.0 | 0.00 | 0.00 | 0.00 | 12 | 925.9 |
| 20260504234017 | 56 | 360 | 26.0 | 35.0 | 0.00 | 0.00 | 0.00 | 13 | 925.4 |
| 20260504233518 | 56 | 360 | 15.0 | 29.0 | 0.00 | 0.00 | 0.00 | 13 | 926.0 |
| 20260504233039 | 55 | 360 | 24.0 | 35.0 | 0.00 | 0.00 | 0.00 | 14 | 925.7 |
| 20260504232514 | 55 | 360 | 27.0 | 35.0 | 0.00 | 0.00 | 0.00 | 15 | 925.7 |
| 20260504232014 | 55 | 360 | 19.0 | 33.0 | 0.00 | 0.00 | 0.00 | 14 | 926.1 |
| 20260504231540 | 55 | 360 | 23.0 | 33.0 | 0.00 | 0.00 | 0.00 | 15 | 925.9 |
| 20260504231015 | 55 | 360 | 23.0 | 29.0 | 0.00 | 0.00 | 0.00 | 15 | 925.9 |
| 20260504230522 | 55 | 360 | 23.0 | 34.0 | 0.00 | 0.00 | 0.00 | 15 | 925.9 |
| 20260504230045 | 55 | 360 | 28.0 | 34.0 | 0.00 | 0.00 | 0.00 | 15 | 925.7 |
| 20260504225521 | 54 | 360 | 19.0 | 36.0 | 0.00 | 0.00 | 0.00 | 18 | 925.7 |
| 20260504225020 | 54 | 360 | 27.0 | 36.0 | 0.00 | 0.00 | 0.00 | 18 | 925.9 |
| 20260504224542 | 55 | 360 | 18.0 | 33.0 | 0.00 | 0.00 | 0.00 | 19 | 926.1 |
| 20260504224022 | 55 | 360 | 25.0 | 33.0 | 0.00 | 0.00 | 0.00 | 20 | 926.1 |
| 20260504223517 | 54 | 360 | 28.0 | 33.0 | 0.00 | 0.00 | 0.00 | 20 | 926.0 |
| 20260504223040 | 53 | 360 | 18.0 | 32.0 | 0.00 | 0.00 | 0.00 | 21 | 926.2 |
| 20260504222518 | 53 | 360 | 22.0 | 32.0 | 0.00 | 0.00 | 0.00 | 21 | 926.3 |
| 20260504222018 | 53 | 360 | 20.0 | 29.0 | 0.00 | 0.00 | 0.00 | 22 | 926.4 |
| 20260504221619 | 53 | 360 | 21.0 | 34.0 | 0.00 | 0.00 | 0.00 | 22 | 926.3 |
| 20260504221013 | 53 | 360 | 27.0 | 34.0 | 0.00 | 0.00 | 0.00 | 21 | 926.1 |
| 20260504220515 | 53 | 360 | 23.0 | 32.0 | 0.00 | 0.00 | 0.00 | 21 | 926.1 |
| 20260504220038 | 54 | 360 | 22.0 | 30.0 | 0.00 | 0.00 | 0.00 | 21 | 926.3 |
| 20260504215517 | 53 | 360 | 20.0 | 30.0 | 0.00 | 0.00 | 0.00 | 21 | 926.4 |